Regional Weather Roundup
Issued by NWS Charleston, SC

Current Version | Previous Version | Graphics & Text | Print | Product List | Glossary On
Versions: 1 2 3 4 5 6 7 8 9 10 11 12 13 14 15 16 17 18 19 20 21 22 23 24 25 26 27 28 29 30 31 32 33 34 35 36 37 38 39 40 41 42 43 44 45 46 47 48 49 50
000
ASUS42 KCHS 031812
RWRCHS

REGIONAL WEATHER ROUNDUP
NATIONAL WEATHER SERVICE CHARLESTON SC
200 PM EDT MON AUG 03 2015

NOTE: "FAIR" INDICATES FEW OR NO CLOUDS BELOW 12,000 FEET WITH NO
SIGNIFICANT WEATHER AND/OR OBSTRUCTIONS TO VISIBILITY.

NOT ALL STATIONS ARE QUALITY CONTROLLED BY THE NATIONAL
WEATHER SERVICE. USE DATA WITH CAUTION...ESPECIALLY
DEWPOINT OBSERVATIONS.

SCZ027-030-031-034>040-042>050-031900-
...SOUTHEAST SOUTH CAROLINA...

CITY           SKY/WX    TMP DP  RH WIND       PRES   REMARKS
N CHARLESTON   PTSUNNY   85  70  60 S17       29.93F
6HR MIN TEMP:  79; 6HR MAX TEMP:  90;

WATERFRONT PRK   N/A     84  75  74 S13       29.93R HX  92
MOUNT PLEASANT LGT RAIN  86  75  70 S12       29.95R HX  95
JOHNS ISLAND   MOCLDY    86  73  66 S14G20    29.94S HX  93
PINOPOLIS      NOT AVBL
MONCKS CORNER  FAIR      86  70  58 SW5       29.93S THUNDER HX  90
SUMMERVILLE    CLOUDY    82  73  74 CALM      29.94S
BEAUFORT MCAS  TSTM      83  75  77 SE8G17    29.91F HX  90
6HR MIN TEMP:  79; 6HR MAX TEMP:  87; 6HR PCP: TRACE;

BEAUFORT ARPT  CLOUDY    82  75  78 S5        29.92S HAZE
HILTON HEAD IS PTSUNNY   82  73  74 S6        29.93S
WALTERBORO     TSTM      79  77  94 CALM      29.94F
ALLENDALE      MOCLDY    84  77  79 VRB7      29.92F HX  94

...SOUTHERN MIDLANDS AND PEE DEE...

CITY           SKY/WX    TMP DP  RH WIND       PRES   REMARKS
GEORGETOWN     NOT AVBL
KINGSTREE      NOT AVBL
ORANGEBURG     PTSUNNY   83  71  67 SE7       29.94S
6HR MIN TEMP:  75; 6HR MAX TEMP:  83; 6HR PCP:  0.03;

BARNWELL       MOCLDY    86  75  70 E3        29.93F HX  95
AIKEN          MOCLDY    88  64  45 N5        29.95F
MANNING        RAIN      77  72  83 CALM      29.95F
COLUMBIA       MOSUNNY   93  68  43 VRB3      29.90F HX  97
6HR MIN TEMP:  75; 6HR MAX TEMP:  94;

SUMTER         PTSUNNY   86  72  62 S13       29.92S HX  92
FLORENCE       PTSUNNY   87  72  60 SW12      29.94F HX  93
6HR MIN TEMP:  75; 6HR MAX TEMP:  88;

MYRTLE BEACH   TSTM      79  72  78 W12       29.96F
N MYRTLE BEACH TSTM      76  74  93 NW5       29.96S FOG
6HR MIN TEMP:  78; 6HR MAX TEMP:  88; 6HR PCP:  0.22;


$$

GAZ063-065-086>088-099>101-113>116-118-119-134>141-150-031900-
...SOUTHEAST GEORGIA...

CITY           SKY/WX    TMP DP  RH WIND       PRES   REMARKS
SAVANNAH ARPT  CLOUDY    83  75  77 SE10      29.90F HX  90
6HR MIN TEMP:  78; 6HR MAX TEMP:  85; 6HR PCP: TRACE;

HUNTER AAF     DRIZZLE   81  81 100 E7        29.88F HX  91
6HR MIN TEMP:  76; 6HR MAX TEMP:  84; 6HR PCP:  0.37;

FORT STEWART   PTSUNNY   84  77  79 SE7       29.86F HX  94
                                      6HR PCP:  0.15;

STATESBORO     TSTM      81  78  91 E6        29.90F
SYLVANIA       MOCLDY    85  79  83 E9        29.91F THUNDER HX  97
CLAXTON        NOT AVBL

...CSRA...CENTRAL AND FAR SOUTHEAST GEORGIA...

CITY           SKY/WX    TMP DP  RH WIND       PRES   REMARKS
THOMSON        MOSUNNY   89  75  62 E5        29.96F HX  99
AUGUSTA-BUSH   PTSUNNY   89  71  55 N7        29.90F HX  95
6HR MIN TEMP:  75; 6HR MAX TEMP:  91;

AUGUSTA-DANIEL MOSUNNY   89  71  55 VRB5      29.92F HX  95
SWAINSBORO     MOCLDY    90  77  66 E3        29.91F HX 102
VIDALIA        CLOUDY    88  73  62 CALM      29.89F HX  96
EASTMAN        MOCLDY    87  75  65 NE5       29.93F HX  96
HAZLEHURST     CLOUDY    84  76  74 CALM      29.89F HX  93
ALMA           CLOUDY    84  75  74 CALM      29.88F HX  92
6HR MIN TEMP:  76; 6HR MAX TEMP:  83; 6HR PCP: TRACE;

WAYCROSS       CLOUDY    85  79  82 NE5       29.88F HX  97
JESUP          CLOUDY    86  79  79 S3        29.88F HX  99
BAXLEY         CLOUDY    84  75  74 NE3       29.88F HX  92
BRUNSWICK      CLOUDY    82  73  74 S7        29.88F
SAINT SIMONS   CLOUDY    82  74  76 SE10G17   29.87F
6HR MIN TEMP:  77; 6HR MAX TEMP:  83; 6HR PCP: TRACE;


$$

SCZ027-028-034-036>038-045-046-048>050-GAZ119-141-031900-
...LAKE AND SUPPLEMENTAL COASTAL OBSERVATIONS...

STATION/POSITION TIME  TEMP    WIND        PRES    WAVE   SWELL
                       AIR SEA DIR/SP/G            HT/PER HT/PER/DIR
                 (UTC) (F)     (DEG/KT/KT) (MB)    (FT/S) (FT/S/D)
UPR LAKE MARION  NOT AVBL
WINYAH BAY       NOT AVBL
LAKE MURRAY      1700   87     180/  4/  5 1012.9F
ACE BASIN NERRS  NOT AVBL
FORT PULASKI     1700   78 85  240/  2/  4 1013.5F
SAPELO ISLAND    1700   84     160/ 13     1012.0F

$$

ANZ835-935-AMZ111-154-330-350-352-354-370-450-454-472-031900-
...C-MAN AND BUOY OBSERVATIONS...

STATION/POSITION TIME  TEMP    WIND        PRES    WAVE   SWELL
                       AIR SEA DIR/SP/G            HT/PER HT/PER/DIR
                 (UTC) (F)     (DEG/KT/KT) (MB)    (FT/S) (FT/S/D)
BUOY 41004       1750   84 83  190/ 10/ 12 1014.0R   4/ 6   3/ 6
BUOY 41008       1750   81 83  170/ 17/ 21 1012.3S   5/ 6   2/180/10
FOLLY BEACH CMAN 1700   84     170/  4/  6 1014.3R
CAPERS NEARSHORE 1708   83     190/  6/ 10 1014.4R
FRIPP NEARSHORE  1700   83     190/ 16/ 19 1013.2R


STATION/POSITION TIME  TEMP    WIND        PRES    WAVE   SWELL
                       AIR SEA DIR/SP/G            HT/PER HT/PER/DIR
                 (UTC) (F)     (DEG/KT/KT) (MB)    (FT/S) (FT/S/D)
5E ST. MARYS GA  1721      82                N/A     5/ 6   2/110/12
FRYING PAN BUOY  1650   81 82  200/ 10/ 12 1015.5    4/ 7   3/190/ 7
BUOY 41025       1750   74 83  180/  6/ 10 1016.4F   3/ 7   3/210/ 7
CAPE LOOKOUT NC  1700   73     320/  7/ 10 1015.6F
BUOY 41002       1750   83 81  200/ 16/ 17 1017.5F   5/ 6   2/ 60/11
BUOY 41010       1720   83 84  190/ 17/ 23 1015.8F
ST AUGUSTINE FL  1800   78 79  200/ 12/ 14 1012.8F


$$


USA.gov is the U.S. government's official web portal to all federal, state and local government web resources and services.